"2009-08-05 00:00:00",1123489,8.13,139,3.802,0.739,24.01,111.1042,27.73,28.76,20.73,0,111.3,13.09,28.58,101.0
"2009-08-05 00:00:30",1123490,9.12,137.3,2.449,0.69,24.04,111.1068,27.74,28.75,20.81,0,111.3,13.09,28.59,99.3
"2009-08-05 00:01:00",1123491,8.71,134.6,2.317,0.385,24.01,111.1064,27.74,28.74,21.25,0,111.3,13.09,28.59,96.6
"2009-08-05 00:01:30",1123492,8.05,134.2,2.68,0.165,23.97,111.102,27.73,28.73,21.37,0,111.3,13.09,28.58,96.2
"2009-08-05 00:02:00",1123493,7.832,134.4,2.409,0.27,23.99,111.1011,27.73,28.73,21.08,0,111.3,13.09,28.57,96.4
"2009-08-05 00:02:30",1123494,8.31,134.6,2.379,0.223,24.02,111.1018,27.73,28.73,20.68,0,111.3,13.09,28.58,96.6
"2009-08-05 00:03:00",1123495,7.711,136.4,1.886,0.151,24.03,111.1018,27.73,28.72,20.36,0,111.3,13.09,28.58,98.4
"2009-08-05 00:03:30",1123496,7.416,135.1,1.835,0.15,24.01,111.1018,27.73,28.71,20.47,0,111.3,13.09,28.58,97.1
"2009-08-05 00:04:00",1123497,7.478,133,3.418,0.228,24.02,111.1021,27.73,28.7,20.37,0,111.3,13.09,28.58,95.0
"2009-08-05 00:04:30",1123498,7.458,134.6,2.391,0.418,24.04,111.1015,27.73,28.71,20.33,0,111.3,13.09,28.57,96.6
"2009-08-05 00:05:00",1123499,6.669,129.5,4.278,0.261,24.05,111.104,27.73,28.69,20.33,0,111.3,13.09,28.58,91.5
"2009-08-05 00:05:30",1123500,6.43,126.5,2.523,0.332,23.99,111.1068,27.74,28.69,20.65,0,111.3,13.09,28.59,88.5
"2009-08-05 00:06:00",1123501,6.366,125.3,4.772,0.225,24.02,111.1079,27.74,28.7,20.84,0,111.3,13.09,28.59,87.3
"2009-08-05 00:06:30",1123502,6.325,132.1,1.642,0.104,24.06,111.109,27.75,28.7,20.38,0,111.3,13.09,28.59,94.1
"2009-08-05 00:07:00",1123503,6.232,134.6,0.89,0.2,24.04,111.1091,27.75,28.7,20.39,0,111.3,13.09,28.59,96.6
"2009-08-05 00:07:30",1123504,5.828,136.1,2.096,0.128,24.05,111.109,27.75,28.69,20.35,0,111.3,13.1,28.59,98.1
"2009-08-05 00:08:00",1123505,5.602,139.9,1.963,0.236,24.05,111.1091,27.75,28.7,20.4,0,111.3,13.1,28.59,101.9
"2009-08-05 00:08:30",1123506,6.024,132.3,2.768,0.199,24,111.1094,27.75,28.7,20.5,0,111.3,13.1,28.59,94.3
"2009-08-05 00:09:00",1123507,6.38,133.5,2.145,0.291,24.01,111.1094,27.75,28.7,20.64,0,111.3,13.1,28.59,95.5
"2009-08-05 00:09:30",1123508,6.467,134.4,1.012,0.096,24.01,111.1091,27.75,28.7,20.66,0,111.3,13.1,28.59,96.4
"2009-08-05 00:10:00",1123509,6.327,133.8,2.348,0.163,23.98,111.1094,27.75,28.7,20.74,0,111.3,13.1,28.59,95.8
"2009-08-05 00:10:30",1123510,6.249,135.8,2.607,0.321,24.02,111.1091,27.75,28.71,20.57,0,111.3,13.1,28.59,97.8
"2009-08-05 00:11:00",1123511,5.92,137,0.804,0.102,24.03,111.1077,27.74,28.69,20.35,0,111.3,13.1,28.59,99.0
"2009-08-05 00:11:30",1123512,5.712,138.8,1.403,0.193,24.02,111.1091,27.75,28.7,20.15,0,111.3,13.1,28.59,100.8
"2009-08-05 00:12:00",1123513,5.254,138.9,1.263,0.198,24.01,111.1089,27.74,28.71,20.09,0,111.3,13.1,28.59,100.9
"2009-08-05 00:12:30",1123514,5.795,137.8,1.085,0.125,24.01,111.1091,27.75,28.71,20,0,111.3,13.1,28.59,99.8
"2009-08-05 00:13:00",1123515,5.57,137.7,1.142,0.187,24.01,111.1097,27.75,28.7,19.98,0,111.3,13.1,28.60,99.7
"2009-08-05 00:13:30",1123516,5.456,138.2,1.079,0.082,23.97,111.1094,27.75,28.7,20.01,0,111.3,13.1,28.59,100.2
"2009-08-05 00:14:00",1123517,5.457,138.8,1.887,0.139,23.99,111.1086,27.74,28.71,20.26,0,111.3,13.1,28.59,100.8
"2009-08-05 00:14:30",1123518,5.523,135.6,1.336,0.11,24.02,111.108,27.74,28.72,20.32,0,111.3,13.1,28.59,97.6
"2009-08-05 00:15:00",1123519,5.495,132.3,3.817,0.214,23.97,111.1105,27.75,28.71,20.28,0,111.3,13.1,28.60,94.3
"2009-08-05 00:15:30",1123520,5.31,127.1,1.189,0.205,23.95,111.11,27.75,28.72,20.11,0,111.3,13.1,28.60,89.1
"2009-08-05 00:16:00",1123521,5.558,123.1,4.522,0.195,23.96,111.1103,27.75,28.72,20.21,0,111.3,13.1,28.60,85.1
"2009-08-05 00:16:30",1123522,5.332,130.4,1.713,0.268,24,111.1103,27.75,28.73,20.19,0,111.3,13.1,28.60,92.4
"2009-08-05 00:17:00",1123523,5.142,130.3,1.276,0.122,24,111.1097,27.75,28.72,20.16,0,111.3,13.1,28.60,92.3
"2009-08-05 00:17:30",1123524,5.149,130.8,1.372,0.138,23.99,111.1105,27.75,28.72,20.2,0,111.3,13.1,28.60,92.8
"2009-08-05 00:18:00",1123525,4.804,126.6,1.662,0.082,24,111.11,27.75,28.72,20.17,0,111.3,13.09,28.60,88.6
"2009-08-05 00:18:30",1123526,4.418,115.7,2.11,0.331,23.95,111.1109,27.75,28.74,20.41,0,111.3,13.09,28.60,77.7
"2009-08-05 00:19:00",1123527,4.414,119.8,3.67,0.315,23.96,111.1111,27.75,28.74,20.44,0,111.3,13.09,28.60,81.8
"2009-08-05 00:19:30",1123528,4.441,120.8,3.05,0.2,23.95,111.1114,27.75,28.73,20.47,0,111.3,13.09,28.60,82.8
"2009-08-05 00:20:00",1123529,4.247,116.2,3.101,0.194,23.97,111.112,27.75,28.74,20.39,0,111.3,13.09,28.60,78.2
"2009-08-05 00:20:30",1123530,4.357,122.7,2.021,0.16,24.01,111.1124,27.75,28.74,20.45,0,111.3,13.09,28.60,84.7
"2009-08-05 00:21:00",1123531,4.447,121.2,6.821,0.15,23.99,111.1131,27.76,28.74,20.54,0,111.3,13.09,28.60,83.2
"2009-08-05 00:21:30",1123532,4.086,117.2,4.071,0.387,23.97,111.1142,27.76,28.74,20.59,0,111.3,13.09,28.61,79.2
"2009-08-05 00:22:00",1123533,3.864,109,8.94,0.388,23.97,111.1161,27.76,28.75,20.68,0,111.3,13.09,28.61,71.0
"2009-08-05 00:22:30",1123534,4.466,89.8,2.936,0.179,23.86,111.1165,27.76,28.73,21.57,0,111.3,13.1,28.61,51.8
"2009-08-05 00:23:00",1123535,4.571,87.7,1.792,0.108,23.92,111.1221,27.78,28.74,21.36,0,111.3,13.1,28.63,49.7
"2009-08-05 00:23:30",1123536,4.424,88,2.292,0.103,23.89,111.1227,27.78,28.74,21.3,0,111.3,13.1,28.63,50.0
"2009-08-05 00:24:00",1123537,4.511,86.3,2.202,0.132,23.85,111.1243,27.78,28.76,21.49,0,111.3,13.1,28.63,48.3
"2009-08-05 00:24:30",1123538,4.592,85.8,1.141,0.145,23.93,111.1253,27.79,28.75,21.32,0,111.3,13.1,28.64,47.8
"2009-08-05 00:25:00",1123539,4.352,88.5,1.853,0.171,23.94,111.1275,27.79,28.75,20.78,0,111.3,13.1,28.64,50.5
"2009-08-05 00:25:30",1123540,4.535,93,1.822,0.134,23.96,111.127,27.79,28.77,20.59,0,111.3,13.1,28.64,55.0
"2009-08-05 00:26:00",1123541,5.061,88.1,1.977,0.2,23.87,111.127,27.79,28.76,20.68,0,111.3,13.1,28.64,50.1
"2009-08-05 00:26:30",1123542,5.134,80,3.145,0.204,23.76,111.13,27.8,28.75,21.79,0,111.3,13.1,28.65,42.0
"2009-08-05 00:27:00",1123543,4.514,76.69,4.923,0.141,23.78,111.1308,27.8,28.76,22.21,0,111.3,13.1,28.65,38.7
"2009-08-05 00:27:30",1123544,5.113,68.23,1.37,0.203,23.68,111.1304,27.8,28.75,22.7,0,111.3,13.1,28.65,30.2
"2009-08-05 00:28:00",1123545,5.382,71.61,2.141,0.214,23.74,111.1299,27.8,28.75,23.04,0,111.3,13.1,28.65,33.6
"2009-08-05 00:28:30",1123546,5.594,73.14,1.255,0.115,23.79,111.1229,27.78,28.76,23.09,0,111.3,13.1,28.63,35.1
"2009-08-05 00:29:00",1123547,5.771,73.81,3.2,0.214,23.77,111.1177,27.77,28.76,23.03,0,111.3,13.1,28.62,35.8
"2009-08-05 00:29:30",1123548,6.499,69.33,2.66,0.227,23.76,111.1115,27.75,28.74,23.19,0,111.3,13.1,28.60,31.3
"2009-08-05 00:30:00",1123549,6.1,70.73,3.47,0.084,23.71,111.1063,27.74,28.76,23.22,0,111.3,13.1,28.59,32.7
"2009-08-05 00:30:30",1123550,6.462,68.47,0.904,0.336,23.75,111.1052,27.74,28.74,23.25,0,111.3,13.1,28.58,30.5
"2009-08-05 00:31:00",1123551,6.413,69.36,1.146,0.101,23.79,111.1058,27.74,28.72,23.21,0,111.3,13.1,28.59,31.4
"2009-08-05 00:31:30",1123552,6.645,70.44,2.761,0.245,23.79,111.1052,27.74,28.73,23.37,0,111.3,13.1,28.58,32.4
"2009-08-05 00:32:00",1123553,7.305,64.9,2.728,0.281,23.75,111.1056,27.74,28.73,23.47,0,111.3,13.1,28.59,26.9
"2009-08-05 00:32:30",1123554,7.371,64.66,4.27,0.34,23.82,111.0881,27.69,28.7,23.36,0,111.3,13.1,28.54,26.7
"2009-08-05 00:33:00",1123555,7.323,62.83,6.842,0.409,23.65,111.0783,27.67,28.7,23.39,0,111.3,13.1,28.51,24.8
"2009-08-05 00:33:30",1123556,6.551,52.34,4.225,0.347,23.27,111.073,27.65,28.69,23.92,0,111.3,13.1,28.50,14.3
"2009-08-05 00:34:00",1123557,6.778,47.61,2.289,0.326,23,111.0705,27.65,28.67,24.41,0,111.3,13.1,28.49,9.6
"2009-08-05 00:34:30",1123558,7.728,48.8,2.555,0.207,23,111.0439,27.58,28.65,23.84,0,111.3,13.1,28.43,10.8
"2009-08-05 00:35:00",1123559,7.542,50.1,3.388,0.504,23.24,111.0332,27.55,28.62,23.26,0,111.3,13.1,28.40,12.1
"2009-08-05 00:35:30",1123560,8.74,49.61,1.436,0.228,23.36,111.0088,27.49,28.58,22.8,0,111.2,13.1,28.34,11.6
"2009-08-05 00:36:00",1123561,8.8,55.32,4.789,0.372,23.51,110.9833,27.42,28.55,22.78,0,111.2,13.1,28.27,17.3
"2009-08-05 00:36:30",1123562,8.86,53.85,3.114,0.33,23.5,110.9696,27.39,28.5,22.48,0,111.2,13.1,28.23,15.8
"2009-08-05 00:37:00",1123563,7.897,50.95,2.421,0.365,23.58,110.9431,27.32,28.46,22.53,0,111.2,13.1,28.17,13.0
"2009-08-05 00:37:30",1123564,8.94,50.63,2.915,0.276,23.55,110.9311,27.29,28.41,21.71,0,111.3,13.1,28.13,12.6
"2009-08-05 00:38:00",1123565,9,49.95,1.304,0.568,23.53,110.9129,27.24,28.38,21.06,0,111.2,13.1,28.09,12.0
"2009-08-05 00:38:30",1123566,8.73,53.24,1.254,0.258,23.58,110.9085,27.23,28.35,21.52,0,111.2,13.1,28.08,15.2
"2009-08-05 00:39:00",1123567,8.77,53.29,2.628,0.132,23.61,110.8883,27.18,28.3,21.62,0,111.2,13.1,28.02,15.3
"2009-08-05 00:39:30",1123568,8.97,53.72,1.453,0.292,23.63,110.8794,27.15,28.26,21.68,0,111.2,13.1,28.00,15.7
"2009-08-05 00:40:00",1123569,8.89,58.14,2.397,0.357,23.72,110.8788,27.15,28.23,22.48,0,111.2,13.1,28.00,20.1
"2009-08-05 00:40:30",1123570,9.07,53.65,2.05,0.435,23.64,110.8774,27.15,28.2,22.07,0,111.2,13.1,28.00,15.7
"2009-08-05 00:41:00",1123571,9.32,58.85,2.133,0.323,23.74,110.8757,27.15,28.19,22.37,0,111.2,13.11,27.99,20.8
"2009-08-05 00:41:30",1123572,9.78,63.13,2.406,0.385,23.82,110.8664,27.12,28.17,22.75,0,111.2,13.11,27.97,25.1
"2009-08-05 00:42:00",1123573,8.75,58.12,2.866,0.313,23.8,110.8628,27.11,28.15,22.81,0,111.2,13.11,27.96,20.1
"2009-08-05 00:42:30",1123574,8.35,64.01,1.942,0.318,23.78,110.86,27.1,28.14,22.66,0,111.2,13.11,27.95,26.0
"2009-08-05 00:43:00",1123575,8.08,61.94,1.341,0.431,23.75,110.8572,27.1,28.13,22.82,0,111.2,13.11,27.94,23.9
"2009-08-05 00:43:30",1123576,8.5,63.34,2.47,0.169,23.77,110.8572,27.1,28.12,22.66,0,111.2,13.11,27.94,25.3
"2009-08-05 00:44:00",1123577,7.75,69.57,2.983,0.42,23.75,110.8572,27.1,28.11,23.03,0,111.2,13.11,27.94,31.6
"2009-08-05 00:44:30",1123578,8.22,64.42,3.134,0.338,23.76,110.8563,27.1,28.09,22.14,0,111.2,13.11,27.94,26.4
"2009-08-05 00:45:00",1123579,8.23,61.96,1.979,0.437,23.8,110.8566,27.1,28.1,22.52,0,111.2,13.11,27.94,24.0
"2009-08-05 00:45:30",1123580,8.87,63.49,2.658,0.342,23.73,110.8561,27.09,28.08,22.18,0,111.2,13.11,27.94,25.5
"2009-08-05 00:46:00",1123581,9.18,68.36,1.657,0.312,23.71,110.8569,27.1,28.09,21.78,0,111.2,13.11,27.94,30.4
"2009-08-05 00:46:30",1123582,9.16,67.19,1.147,0.257,23.72,110.8572,27.1,28.09,21.73,0,111.2,13.11,27.94,29.2
"2009-08-05 00:47:00",1123583,9.32,69.42,1.018,0.25,23.74,110.8586,27.1,28.08,21.94,0,111.2,13.11,27.95,31.4
"2009-08-05 00:47:30",1123584,9.36,70.69,1.238,0.22,23.69,110.8569,27.1,28.09,21.5,0,111.2,13.11,27.94,32.7
"2009-08-05 00:48:00",1123585,9.2,71.97,1.438,0.189,23.74,110.8563,27.1,28.1,21.48,0,111.2,13.11,27.94,34.0
"2009-08-05 00:48:30",1123586,9.24,69.43,1.513,0.125,23.58,110.8563,27.1,28.09,20.88,0,111.2,13.11,27.94,31.4
"2009-08-05 00:49:00",1123587,9.26,68.48,0.863,0.169,23.57,110.8563,27.1,28.09,19.98,0,111.2,13.11,27.94,30.5
"2009-08-05 00:49:30",1123588,9.56,68.53,0.9,0.143,23.57,110.8547,27.09,28.09,19.4,0,111.2,13.11,27.94,30.5
"2009-08-05 00:50:00",1123589,9.7,68.2,0.661,0.111,23.58,110.8538,27.09,28.08,18.96,0,111.2,13.11,27.94,30.2
"2009-08-05 00:50:30",1123590,9.56,69.17,0.585,0.096,23.59,110.853,27.09,28.08,19.16,0,111.2,13.11,27.93,31.2
"2009-08-05 00:51:00",1123591,9.56,68.58,0.488,0.082,23.59,110.8507,27.08,28.09,18.81,0,111.2,13.11,27.93,30.6
"2009-08-05 00:51:30",1123592,9.87,66.89,0.76,0.175,23.56,110.8499,27.08,28.08,18.69,0,111.2,13.11,27.93,28.9
"2009-08-05 00:52:00",1123593,10.23,68.44,0.486,0.167,23.58,110.8479,27.07,28.08,19.33,0,111.2,13.11,27.92,30.4
"2009-08-05 00:52:30",1123594,9.9,69.37,1.046,0.191,23.66,110.8457,27.07,28.08,19.6,0,111.2,13.11,27.91,31.4
"2009-08-05 00:53:00",1123595,10.08,68.83,0.437,0.108,23.62,110.8457,27.07,28.07,19.63,0,111.2,13.11,27.91,30.8
"2009-08-05 00:53:30",1123596,9.96,68.81,0.716,0.199,23.6,110.8457,27.07,28.07,19.78,0,111.2,13.11,27.91,30.8
"2009-08-05 00:54:00",1123597,9.97,70.02,2.12,0.213,23.66,110.8463,27.07,28.06,19.72,0,111.2,13.11,27.92,32.0
"2009-08-05 00:54:30",1123598,10.26,67.87,0.587,0.106,23.57,110.8463,27.07,28.08,19.92,0,111.2,13.11,27.92,29.9
"2009-08-05 00:55:00",1123599,10.41,69.59,0.566,0.07,23.6,110.8485,27.08,28.06,20.02,0,111.2,13.11,27.92,31.6
"2009-08-05 00:55:30",1123600,10.43,70.48,0.521,0.072,23.64,110.8479,27.07,28.08,20.01,0,111.2,13.11,27.92,32.5
"2009-08-05 00:56:00",1123601,10.46,70.27,0.586,0.077,23.6,110.8473,27.07,28.06,19.91,0,111.2,13.11,27.92,32.3
"2009-08-05 00:56:30",1123602,10.61,69.92,0.692,0.145,23.59,110.8494,27.08,28.05,19.77,0,111.2,13.11,27.92,31.9
"2009-08-05 00:57:00",1123603,10.85,69.38,0.855,0.084,23.55,110.8444,27.06,28.05,19.51,0,111.2,13.11,27.91,31.4
"2009-08-05 00:57:30",1123604,11.07,70.42,0.805,0.149,23.69,110.8357,27.04,28.05,19.17,0,111.2,13.11,27.89,32.4
"2009-08-05 00:58:00",1123605,10.98,71.3,1.013,0.133,23.71,110.8326,27.03,28.05,19.2,0,111.2,13.11,27.88,33.3
"2009-08-05 00:58:30",1123606,10.58,71.87,0.897,0.184,23.78,110.8298,27.03,28.04,19.38,0,111.2,13.12,27.87,33.9
"2009-08-05 00:59:00",1123607,11.08,72.24,0.417,0.097,23.7,110.8322,27.03,28.04,19.56,0,111.2,13.12,27.88,34.2
"2009-08-05 00:59:30",1123608,11.33,71.99,0.616,0.15,23.71,110.8253,27.02,28.02,19.09,0,111.2,13.12,27.86,34.0
"2009-08-05 01:00:00",1123609,11.63,71.48,0.684,0.08,23.7,110.826,27.02,28.02,18.84,0,111.2,13.12,27.86,33.5
"2009-08-05 01:00:30",1123610,11.41,74.85,0.785,0.448,23.73,110.831,27.03,28.01,19.67,0,111.2,13.12,27.88,36.8
"2009-08-05 01:01:00",1123611,10.71,74.43,2.441,0.279,23.67,110.8354,27.04,28.02,19.82,0,111.2,13.12,27.89,36.4
"2009-08-05 01:01:30",1123612,10.62,75.74,2.674,0.628,23.68,110.8347,27.04,28.01,20.19,0,111.2,13.12,27.89,37.7
"2009-08-05 01:02:00",1123613,11.26,74.58,1.886,0.261,23.67,110.8344,27.04,28.01,20.56,0,111.2,13.12,27.89,36.6
"2009-08-05 01:02:30",1123614,9.92,76.77,2.69,0.754,23.13,110.8372,27.05,28,21.41,0,111.2,13.12,27.89,38.8
"2009-08-05 01:03:00",1123615,8.93,83.1,4.703,0.787,23.53,110.8331,27.04,28,22.81,0,111.2,13.12,27.88,45.1
"2009-08-05 01:03:30",1123616,8.74,90.1,8.48,0.466,23.78,110.822,27.01,28,23.04,0,111.2,13.12,27.85,52.1
"2009-08-05 01:04:00",1123617,7.826,87.7,4.253,0.538,23.73,110.8139,26.99,27.98,23.21,0,111.2,13.12,27.83,49.7
"2009-08-05 01:04:30",1123618,8.13,90.3,2.528,0.293,23.89,110.8071,26.97,27.98,23.38,0,111.2,13.12,27.81,52.3
"2009-08-05 01:05:00",1123619,6.823,79.34,6.107,0.533,23.78,110.806,26.97,27.97,23.12,0,111.2,13.12,27.81,41.3
"2009-08-05 01:05:30",1123620,6.244,80.1,9.99,0.53,23.72,110.8057,26.97,27.96,22.66,0,111.2,13.12,27.81,42.1
"2009-08-05 01:06:00",1123621,7.531,87.6,6.618,0.483,23.31,110.806,26.97,27.95,22.77,0,111.2,13.12,27.81,49.6
"2009-08-05 01:06:30",1123622,6.873,84.4,7.298,0.659,23.53,110.8044,26.96,27.93,23.03,0,111.2,13.12,27.81,46.4
"2009-08-05 01:07:00",1123623,8.99,85.4,2.164,1.118,23.61,110.797,26.94,27.93,22.92,0,111.2,13.12,27.79,47.4
"2009-08-05 01:07:30",1123624,10.37,81.5,1.897,0.401,23.84,110.7862,26.92,27.92,22.6,0,111.2,13.12,27.76,43.5
"2009-08-05 01:08:00",1123625,9.6,85.5,2.2,0.33,23.92,110.7814,26.9,27.91,22.79,0,111.2,13.12,27.75,47.5
"2009-08-05 01:08:30",1123626,9.58,83.5,4.68,0.645,23.83,110.7827,26.91,27.89,21.94,0,111.2,13.12,27.75,45.5
"2009-08-05 01:09:00",1123627,9.37,82.4,2.366,0.854,23.82,110.7831,26.91,27.9,21.46,0,111.2,13.12,27.75,44.4
"2009-08-05 01:09:30",1123628,8.09,83.8,5.058,0.705,23.81,110.7829,26.91,27.89,22.17,0,111.2,13.12,27.75,45.8
"2009-08-05 01:10:00",1123629,9.11,86.4,3.646,0.839,23.64,110.7823,26.91,27.88,21.59,0,111.2,13.11,27.75,48.4
"2009-08-05 01:10:30",1123630,10.16,81.6,3.663,0.598,23.56,110.7847,26.91,27.89,21.58,0,111.2,13.11,27.76,43.6
"2009-08-05 01:11:00",1123631,11.06,77.01,1.857,0.387,23.39,110.7808,26.9,27.89,20.36,0,111.2,13.11,27.75,39.0
"2009-08-05 01:11:30",1123632,11.43,75.37,1.99,0.638,23.35,110.7801,26.9,27.88,19.16,0,111.2,13.11,27.75,37.4
"2009-08-05 01:12:00",1123633,11.78,75.18,2.298,0.632,23.22,110.7814,26.9,27.87,19.69,0,111.2,13.11,27.75,37.2
"2009-08-05 01:12:30",1123634,12.05,72.78,1.224,0.352,23.08,110.7791,26.9,27.86,19.29,0,111.2,13.11,27.74,34.8
"2009-08-05 01:13:00",1123635,11.71,74.07,4.551,0.431,23.27,110.7609,26.85,27.85,20.13,0,111.2,13.11,27.70,36.1
"2009-08-05 01:13:30",1123636,11.88,74.8,3.252,0.364,23.19,110.7497,26.82,27.84,20.27,0,111.2,13.11,27.67,36.8
"2009-08-05 01:14:00",1123637,11.19,77.04,2.646,0.499,22.86,110.7466,26.81,27.82,21.32,0,111.2,13.12,27.66,39.0
"2009-08-05 01:14:30",1123638,10.89,76.34,2.025,0.443,23.11,110.7202,26.75,27.81,21.99,0,111.2,13.12,27.59,38.3
"2009-08-05 01:15:00",1123639,10.67,79.92,3.184,0.598,23.11,110.7126,26.73,27.76,22.33,0,111.2,13.12,27.57,41.9
"2009-08-05 01:15:30",1123640,10.25,87.9,2.835,0.405,23.31,110.6904,26.67,27.75,23.46,0,111.2,13.12,27.51,49.9
"2009-08-05 01:16:00",1123641,10.52,88.9,1.567,0.273,23.42,110.6803,26.64,27.73,24.1,0,111.2,13.12,27.49,50.9
"2009-08-05 01:16:30",1123642,10.35,89.4,2.131,0.233,23.04,110.6623,26.6,27.69,24.39,0,111.2,13.12,27.44,51.4
"2009-08-05 01:17:00",1123643,10.23,93.2,2.283,0.409,23.15,110.6463,26.56,27.66,24.39,0,111.2,13.12,27.40,55.2
"2009-08-05 01:17:30",1123644,10.47,91.6,1.558,0.742,23.34,110.627,26.51,27.63,24.28,0,111.2,13.12,27.35,53.6
"2009-08-05 01:18:00",1123645,10.57,96.1,3.069,0.654,23.49,110.6132,26.47,27.59,24.55,0,111.2,13.13,27.31,58.1
"2009-08-05 01:18:30",1123646,9.5,102.4,2.223,0.438,23.67,110.6053,26.45,27.55,24.64,0,111.2,13.13,27.29,64.4
"2009-08-05 01:19:00",1123647,10.02,94.3,4.9,0.99,23.46,110.5877,26.4,27.54,24.53,0,111.2,13.13,27.25,56.3
"2009-08-05 01:19:30",1123648,10.4,94.2,1.563,0.446,23.53,110.5812,26.39,27.51,24.34,0,111.2,13.13,27.23,56.2
"2009-08-05 01:20:00",1123649,9.84,90.7,2.596,0.286,22.91,110.5795,26.38,27.48,23.12,0,111.2,13.13,27.23,52.7
"2009-08-05 01:20:30",1123650,9.51,85.5,4.148,0.423,23.03,110.5781,26.38,27.45,23,0,111.2,13.13,27.22,47.5
"2009-08-05 01:21:00",1123651,9.23,89.8,3.836,0.651,23.26,110.5658,26.35,27.43,23.03,0,111.2,13.13,27.19,51.8
"2009-08-05 01:21:30",1123652,9.22,88.4,5.331,0.36,23.06,110.5492,26.31,27.4,22.61,0,111.2,13.13,27.15,50.4
"2009-08-05 01:22:00",1123653,9.51,90.7,2.145,0.384,23.45,110.5458,26.3,27.39,21.92,0,111.2,13.13,27.14,52.7
"2009-08-05 01:22:30",1123654,9.31,91.2,2.698,0.87,23.39,110.5458,26.3,27.37,20.97,0,111.2,13.13,27.14,53.2
"2009-08-05 01:23:00",1123655,9.69,88.5,3.24,0.735,23.3,110.5458,26.3,27.35,19.9,0,111.2,13.13,27.14,50.5
"2009-08-05 01:23:30",1123656,9.17,88,5.303,0.377,23.26,110.545,26.3,27.33,20.29,0,111.2,13.13,27.14,50.0
"2009-08-05 01:24:00",1123657,9.42,86.1,3.142,0.487,22.68,110.5436,26.29,27.32,20.11,0,111.2,13.13,27.14,48.1
"2009-08-05 01:24:30",1123658,9.89,87,1.424,0.552,22.72,110.5284,26.25,27.3,20.14,0,111.2,13.13,27.10,49.0
"2009-08-05 01:25:00",1123659,10.3,90.2,2.71,0.525,23,110.518,26.23,27.3,18.92,0,111.2,13.13,27.07,52.2
"2009-08-05 01:25:30",1123660,10,90.6,2.645,0.351,23.01,110.5124,26.21,27.29,19.05,0,111.2,13.13,27.05,52.6
"2009-08-05 01:26:00",1123661,10.24,89.7,1.328,0.312,23.04,110.5121,26.21,27.28,18.6,0,111.2,13.13,27.05,51.7
"2009-08-05 01:26:30",1123662,10.71,90.7,1.887,0.522,23.19,110.5121,26.21,27.25,18.63,0,111.2,13.13,27.05,52.7
"2009-08-05 01:27:00",1123663,10.08,93.9,7.683,0.767,23.15,110.5131,26.21,27.26,20.26,0,111.2,13.13,27.06,55.9
"2009-08-05 01:27:30",1123664,10.36,92.5,4.946,0.71,23.25,110.5121,26.21,27.23,20.57,0,111.2,13.13,27.05,54.5
"2009-08-05 01:28:00",1123665,10.01,96.7,3.877,1.353,23.3,110.5127,26.21,27.25,21.25,0,111.2,13.13,27.06,58.7
"2009-08-05 01:28:30",1123666,10.62,98.6,3.718,0.427,23.3,110.514,26.22,27.24,21.32,0,111.2,13.13,27.06,60.6
"2009-08-05 01:29:00",1123667,10.55,97.2,4.661,0.487,23.18,110.5162,26.22,27.23,20.67,0,111.2,13.13,27.06,59.2
"2009-08-05 01:29:30",1123668,10.69,104.1,8.75,0.714,23.2,110.5174,26.22,27.22,19.75,0,111.2,13.13,27.07,66.1
"2009-08-05 01:30:00",1123669,8.87,101.8,4.653,0.638,23.05,110.5236,26.24,27.21,20.66,0,111.2,13.13,27.08,63.8
"2009-08-05 01:30:30",1123670,12.11,106,4.146,1.119,23.03,110.5247,26.24,27.21,20.67,0,111.2,13.13,27.09,68.0
"2009-08-05 01:31:00",1123671,9.68,120.2,7.957,2.294,23.05,110.5201,26.23,27.19,22.24,0,111.2,13.13,27.07,82.2
"2009-08-05 01:31:30",1123672,6.184,127,8.42,0.863,22.88,110.5086,26.2,27.19,24.83,0,111.2,13.13,27.04,89.0
"2009-08-05 01:32:00",1123673,8.38,104.6,4.902,0.557,23.02,110.5063,26.2,27.21,25.43,0,111.2,13.13,27.04,66.6
"2009-08-05 01:32:30",1123674,7.779,124.8,7.041,0.32,22.91,110.5017,26.18,27.2,25.6,0,111.2,13.13,27.03,86.8
"2009-08-05 01:33:00",1123675,6.97,128.6,4.729,1.008,22.88,110.5017,26.18,27.19,25.49,0,111.2,13.13,27.03,90.6
"2009-08-05 01:33:30",1123676,7.108,128.6,3.895,0.612,22.93,110.4898,26.15,27.18,25.41,0,111.2,13.14,27.00,90.6
"2009-08-05 01:34:00",1123677,8.1,113.8,11.69,0.785,23.01,110.4731,26.11,27.14,25.19,0,111.2,13.14,26.95,75.8
"2009-08-05 01:34:30",1123678,7.624,93.1,10.57,1.476,23.05,110.4717,26.11,27.13,24.65,0,111.2,13.14,26.95,55.1
"2009-08-05 01:35:00",1123679,6.403,112.8,6.215,0.912,23.03,110.4634,26.09,27.1,22.88,0,111.2,13.14,26.93,74.8
"2009-08-05 01:35:30",1123680,7.293,122.9,8.78,1.173,23.02,110.4457,26.04,27.08,24.24,0,111.2,13.14,26.88,84.9
"2009-08-05 01:36:00",1123681,6.708,124.1,14.28,1.095,23.06,110.439,26.02,27.07,25.6,0,111.2,13.14,26.87,86.1
"2009-08-05 01:36:30",1123682,6.647,116.1,4.527,0.389,22.99,110.4387,26.02,27.05,25,0,111.1,13.14,26.86,78.1
"2009-08-05 01:37:00",1123683,7.724,98.1,10.28,0.628,23.12,110.4342,26.01,27.03,24.66,0,111.2,13.14,26.85,60.1
"2009-08-05 01:37:30",1123684,7.844,113.5,9.85,0.482,22.96,110.4193,25.97,27.01,25.17,0,111.1,13.14,26.81,75.5
"2009-08-05 01:38:00",1123685,7.506,115.5,10.98,2.062,22.98,110.4121,25.95,27,25.47,0,111.1,13.14,26.80,77.5
"2009-08-05 01:38:30",1123686,10.39,94.2,6.225,0.62,23.15,110.4065,25.94,26.99,24.89,0,111.1,13.14,26.78,56.2
"2009-08-05 01:39:00",1123687,7.827,100.4,5.64,1.191,23.06,110.4056,25.94,26.97,25,0,111.1,13.14,26.78,62.4
"2009-08-05 01:39:30",1123688,6.791,107.5,9.08,1.617,22.99,110.4077,25.94,26.95,25.41,0,111.1,13.14,26.78,69.5
"2009-08-05 01:40:00",1123689,10.55,111.5,4.161,0.822,23.14,110.4052,25.94,26.94,25.06,0,111.1,13.14,26.78,73.5
"2009-08-05 01:40:30",1123690,8.94,110.1,4.888,0.58,23.17,110.4041,25.93,26.94,24.67,0,111.1,13.14,26.78,72.1
"2009-08-05 01:41:00",1123691,7.302,117.2,4.635,1.039,23,110.396,25.91,26.92,24.74,0,111.1,13.14,26.75,79.2
"2009-08-05 01:41:30",1123692,6.56,108.7,8.15,1.134,23.02,110.3921,25.9,26.9,24.13,0,111.1,13.14,26.74,70.7
"2009-08-05 01:42:00",1123693,6.627,114.3,9.43,0.298,22.88,110.385,25.88,26.89,24.74,0,111.1,13.14,26.73,76.3
"2009-08-05 01:42:30",1123694,7.188,113.1,5.972,0.65,22.98,110.3808,25.87,26.89,24.8,0,111.1,13.14,26.72,75.1
"2009-08-05 01:43:00",1123695,7.99,125.4,4.292,0.52,23.15,110.3809,25.87,26.88,24.91,0,111.1,13.14,26.72,87.4
"2009-08-05 01:43:30",1123696,8.05,128.2,6.395,1.187,22.94,110.3805,25.87,26.87,24.84,0,111.1,13.13,26.71,90.2
"2009-08-05 01:44:00",1123697,7.442,124.1,5.241,0.859,22.79,110.3805,25.87,26.88,24.47,0,111.1,13.13,26.71,86.1
"2009-08-05 01:44:30",1123698,4.531,142.5,16.47,0.732,22.99,110.3809,25.87,26.86,24.63,0,111.1,13.13,26.72,104.5
"2009-08-05 01:45:00",1123699,4.47,116,15.4,0.802,23.01,110.3809,25.87,26.85,24.84,0,111.1,13.13,26.72,78.0
"2009-08-05 01:45:30",1123700,4.09,98.5,3.189,0.578,22.78,110.3738,25.86,26.83,24.38,0,111.1,13.13,26.70,60.5
"2009-08-05 01:46:00",1123701,3.345,143.5,17.05,0.695,22.95,110.3584,25.82,26.82,25.32,0,111.1,13.13,26.66,105.5
"2009-08-05 01:46:30",1123702,3.594,166.3,8.85,0.974,22.91,110.3539,25.8,26.81,25.44,0,111.1,13.13,26.65,128.3
"2009-08-05 01:47:00",1123703,5.11,150.1,7.849,0.695,22.94,110.3472,25.79,26.79,25.32,0,111.1,13.13,26.63,112.1
"2009-08-05 01:47:30",1123704,3.495,148.4,12.01,1.079,22.85,110.3472,25.79,26.8,25.27,0,111.1,13.13,26.63,110.4
"2009-08-05 01:48:00",1123705,5.034,173.8,23.22,0.913,22.88,110.3472,25.79,26.79,25.46,0,111.1,13.14,26.63,135.8
"2009-08-05 01:48:30",1123706,6.251,198.3,5.001,0.713,23.4,110.3472,25.79,26.77,25.91,0,111.1,13.14,26.63,160.3